QPF
0.00 0.00 0.00 0.00 0.00 0.00 0.00 0.00 0.00 0.00 0.00 0.00 0.00 0.01 0.02 0.03 0.04 0.04 0.03 0.01 0.00 0.00 0.00 0.00 0.00 0.00 0.00 0.00 0.00 0.00 0.00 0.00 0.00 0.00 0.00 0.00 0.00 0.00 0.00 0.00 0.00 0.00 0.00 0.00 0.00 0.00 0.00 0.00 0.00
0.00 0.00 0.00 0.00 0.00 0.00 0.00 0.00 0.01 0.01 0.01 0.00 0.00 0.01 0.01 0.01 0.02 0.01 0.01 0.00 0.00 0.00 0.00 0.00 0.00 0.00 0.00 0.00 0.00 0.00 0.00 0.00 0.00 0.00 0.00 0.00 0.00 0.00 0.00 0.00 0.00 0.00 0.00 0.00 0.00 0.00 0.00 0.00 0.00
0.00 0.00 0.00 0.00 0.00 0.00 0.00 0.00 0.01 0.01 0.01 0.00 0.00 0.00 0.00 0.01 0.01 0.01 0.00 0.00 0.00 0.00 0.00 0.00 0.00 0.00 0.00 0.00 0.00 0.00 0.00 0.00 0.00 0.00 0.00 0.00 0.00 0.00 0.00 0.00 0.00 0.00 0.00 0.00 0.00 0.00 0.00 0.00 0.00
0.00 0.00 0.00 0.00 0.00 0.00 0.00 0.00 0.00 0.00 0.01 0.01 0.00 0.00 0.00 0.00 0.01 0.00 0.00 0.00 0.00 0.00 0.00 0.00 0.00 0.00 0.00 0.00 0.00 0.00 0.00 0.00 0.00 0.00 0.00 0.00 0.00 0.00 0.00 0.00 0.00 0.00 0.00 0.00 0.01 0.01 0.00 0.00 0.00
0.00 0.00 0.00 0.00 0.00 0.00 0.00 0.00 0.00 0.01 0.01 0.00 0.00 0.00 0.00 0.01 0.00 0.00 0.00 0.00 0.00 0.00 0.00 0.00 0.01 0.00 0.00 0.00 0.00 0.00 0.00 0.00 0.00 0.00 0.00 0.00 0.00 0.00 0.00 0.00 0.00 0.00 0.01 0.00 0.00 0.00 0.00 0.00 0.00
0.00 0.00 0.00 0.00 0.00 0.00 0.00 0.00 0.01 0.01 0.01 0.00 0.00 0.00 0.00 0.00 0.00 0.00 0.00 0.00 0.00 0.00 0.00 0.00 0.01 0.01 0.00 0.01 0.00 0.01 0.01 0.01 0.01 0.00 0.00 0.00 0.00 0.00 0.00 0.00 0.00 0.01 0.01 0.01 0.01 0.00 0.00 0.00 0.00
0.00 0.00 0.00 0.00 0.00 0.00 0.00 0.00 0.01 0.01 0.01 0.00 0.00 0.00 0.00 0.00 0.00 0.00 0.00 0.00 0.00 0.00 0.00 0.00 0.00 0.00 0.00 0.01 0.01 0.01 0.01 0.01 0.01 0.01 0.01 0.01 0.01 0.01 0.01 0.01 0.01 0.01 0.01 0.01 0.01 0.01 0.00 0.00 0.00
0.00 0.00 0.00 0.00 0.00 0.00 0.00 0.01 0.01 0.01 0.01 0.01 0.01 0.00 0.00 0.00 0.00 0.00 0.00 0.00 0.00 0.00 0.00 0.00 0.00 0.00 0.00 0.00 0.01 0.01 0.01 0.01 0.01 0.01 0.01 0.01 0.02 0.02 0.02 0.01 0.01 0.01 0.01 0.01 0.01 0.01 0.00 0.00 0.00
0.00 0.00 0.00 0.00 0.00 0.00 0.01 0.01 0.02 0.02 0.02 0.01 0.01 0.00 0.00 0.00 0.00 0.00 0.00 0.01 0.01 0.01 0.00 0.00 0.00 0.00 0.00 0.00 0.01 0.01 0.01 0.01 0.01 0.01 0.02 0.02 0.02 0.01 0.01 0.02 0.01 0.02 0.03 0.03 0.03 0.03 0.03 0.02 0.01
0.00 0.00 0.00 0.00 0.00 0.00 0.01 0.01 0.02 0.02 0.02 0.02 0.01 0.00 0.00 0.00 0.00 0.00 0.01 0.02 0.02 0.02 0.01 0.00 0.00 0.00 0.01 0.01 0.01 0.01 0.01 0.01 0.01 0.01 0.01 0.01 0.01 0.01 0.00 0.01 0.02 0.04 0.07 0.08 0.07 0.08 0.08 0.07 0.04
0.00 0.00 0.00 0.00 0.00 0.00 0.00 0.01 0.01 0.02 0.03 0.03 0.01 0.00 0.00 0.00 0.00 0.00 0.01 0.02 0.03 0.03 0.01 0.01 0.02 0.03 0.03 0.02 0.02 0.01 0.01 0.01 0.01 0.01 0.02 0.02 0.02 0.02 0.01 0.01 0.03 0.07 0.11 0.14 0.15 0.15 0.15 0.14 0.12
0.00 0.00 0.00 0.00 0.00 0.00 0.00 0.01 0.01 0.02 0.01 0.01 0.01 0.00 0.00 0.00 0.01 0.01 0.03 0.04 0.05 0.05 0.06 0.08 0.08 0.09 0.08 0.08 0.09 0.08 0.08 0.07 0.06 0.06 0.06 0.05 0.06 0.07 0.07 0.08 0.09 0.10 0.11 0.15 0.18 0.18 0.18 0.17 0.17
0.00 0.00 0.00 0.00 0.00 0.00 0.00 0.01 0.02 0.02 0.02 0.01 0.01 0.01 0.01 0.01 0.02 0.04 0.05 0.08 0.10 0.11 0.19 0.20 0.16 0.20 0.24 0.24 0.25 0.22 0.21 0.19 0.18 0.17 0.16 0.16 0.16 0.18 0.17 0.15 0.12 0.10 0.08 0.11 0.16 0.18 0.19 0.19 0.17
0.00 0.00 0.00 0.00 0.00 0.00 0.01 0.02 0.03 0.03 0.02 0.02 0.02 0.03 0.03 0.03 0.04 0.05 0.09 0.11 0.14 0.17 0.22 0.23 0.24 0.32 0.35 0.33 0.33 0.36 0.27 0.22 0.21 0.20 0.20 0.22 0.21 0.22 0.18 0.17 0.15 0.12 0.09 0.07 0.10 0.11 0.11 0.12 0.12
0.00 0.00 0.00 0.00 0.01 0.01 0.01 0.03 0.05 0.05 0.05 0.04 0.04 0.05 0.05 0.07 0.06 0.07 0.10 0.15 0.18 0.22 0.25 0.29 0.29 0.32 0.34 0.32 0.32 0.32 0.26 0.23 0.22 0.18 0.17 0.16 0.17 0.17 0.14 0.11 0.09 0.07 0.05 0.03 0.05 0.06 0.07 0.09 0.10
0.00 0.00 0.00 0.01 0.01 0.02 0.02 0.03 0.05 0.05 0.05 0.06 0.07 0.06 0.07 0.08 0.08 0.09 0.12 0.17 0.20 0.21 0.21 0.23 0.23 0.26 0.27 0.26 0.30 0.27 0.20 0.18 0.15 0.13 0.13 0.12 0.10 0.09 0.09 0.06 0.04 0.03 0.02 0.03 0.03 0.03 0.04 0.06 0.08
0.00 0.00 0.00 0.00 0.01 0.01 0.02 0.04 0.05 0.04 0.06 0.08 0.08 0.07 0.07 0.08 0.08 0.08 0.08 0.11 0.15 0.14 0.13 0.13 0.13 0.14 0.14 0.13 0.18 0.18 0.13 0.10 0.09 0.09 0.08 0.08 0.07 0.07 0.06 0.04 0.03 0.03 0.03 0.02 0.02 0.01 0.01 0.01 0.02
0.00 0.00 0.00 0.01 0.01 0.01 0.02 0.05 0.06 0.07 0.07 0.08 0.08 0.08 0.08 0.07 0.06 0.06 0.06 0.08 0.09 0.08 0.06 0.06 0.06 0.06 0.07 0.07 0.06 0.06 0.05 0.04 0.05 0.04 0.03 0.03 0.03 0.02 0.02 0.02 0.02 0.02 0.02 0.02 0.01 0.01 0.01 0.01 0.02
0.00 0.01 0.01 0.01 0.01 0.01 0.02 0.05 0.07 0.08 0.09 0.07 0.07 0.09 0.06 0.06 0.05 0.04 0.03 0.04 0.04 0.04 0.03 0.03 0.03 0.03 0.03 0.02 0.02 0.01 0.01 0.01 0.01 0.01 0.01 0.01 0.01 0.01 0.01 0.01 0.01 0.01 0.01 0.01 0.01 0.01 0.01 0.01 0.01
0.01 0.01 0.01 0.01 0.01 0.01 0.02 0.04 0.05 0.07 0.08 0.07 0.05 0.09 0.06 0.04 0.04 0.03 0.02 0.02 0.02 0.02 0.02 0.01 0.02 0.02 0.02 0.00 0.00 0.00 0.00 0.00 0.00 0.00 0.00 0.00 0.00 0.00 0.01 0.01 0.01 0.00 0.00 0.00 0.00 0.00 0.01 0.01 0.01
0.01 0.01 0.01 0.01 0.01 0.01 0.02 0.03 0.03 0.03 0.04 0.05 0.04 0.03 0.02 0.02 0.02 0.01 0.01 0.02 0.01 0.01 0.01 0.01 0.00 0.00 0.00 0.00 0.00 0.00 0.00 0.00 0.00 0.00 0.00 0.00 0.00 0.00 0.00 0.00 0.00 0.00 0.00 0.00 0.00 0.00 0.00 0.00 0.00
0.01 0.01 0.01 0.01 0.01 0.01 0.01 0.01 0.02 0.02 0.03 0.05 0.04 0.04 0.02 0.01 0.01 0.01 0.01 0.01 0.00 0.00 0.00 0.00 0.00 0.00 0.00 0.00 0.00 0.00 0.00 0.00 0.00 0.00 0.00 0.00 0.00 0.00 0.00 0.00 0.00 0.00 0.00 0.00 0.00 0.00 0.00 0.00 0.00
0.01 0.01 0.01 0.02 0.01 0.01 0.01 0.00 0.01 0.01 0.01 0.02 0.03 0.02 0.01 0.01 0.00 0.00 0.00 0.00 0.00 0.00 0.00 0.00 0.00 0.00 0.00 0.00 0.00 0.00 0.00 0.00 0.00 0.00 0.00 0.00 0.00 0.00 0.00 0.00 0.00 0.00 0.00 0.00 0.00 0.00 0.00 0.00 0.00
0.01 0.01 0.02 0.02 0.01 0.01 0.00 0.00 0.00 0.00 0.00 0.01 0.02 0.01 0.00 0.00 0.00 0.00 0.00 0.00 0.00 0.00 0.00 0.00 0.00 0.00 0.00 0.00 0.00 0.00 0.00 0.00 0.00 0.00 0.00 0.00 0.00 0.00 0.00 0.00 0.00 0.00 0.00 0.00 0.00 0.00 0.00 0.00 0.00
0.00 0.01 0.01 0.01 0.00 0.00 0.00 0.00 0.00 0.00 0.00 0.00 0.00 0.00 0.00 0.00 0.00 0.00 0.00 0.00 0.00 0.00 0.00 0.00 0.00 0.00 0.00 0.00 0.00 0.00 0.00 0.00 0.00 0.00 0.00 0.00 0.00 0.00 0.00 0.00 0.00 0.00 0.00 0.00 0.00 0.00 0.00 0.00 0.00
0.00 0.00 0.00 0.00 0.00 0.00 0.00 0.00 0.00 0.00 0.00 0.00 0.00 0.00 0.00 0.00 0.00 0.00 0.00 0.00 0.00 0.00 0.00 0.00 0.00 0.00 0.00 0.00 0.00 0.00 0.00 0.00 0.00 0.00 0.00 0.00 0.00 0.00 0.00 0.00 0.00 0.00 0.00 0.00 0.00 0.00 0.00 0.00 0.00
0.00 0.00 0.00 0.00 0.00 0.00 0.00 0.00 0.00 0.00 0.00 0.00 0.00 0.00 0.00 0.00 0.00 0.00 0.00 0.00 0.00 0.00 0.00 0.00 0.00 0.00 0.00 0.00 0.00 0.00 0.00 0.00 0.00 0.00 0.00 0.00 0.00 0.00 0.00 0.00 0.00 0.00 0.00 0.00 0.00 0.00 0.00 0.00 0.00
0.00 0.00 0.00 0.00 0.00 0.00 0.00 0.00 0.00 0.00 0.00 0.00 0.00 0.00 0.00 0.00 0.00 0.00 0.00 0.00 0.00 0.00 0.00 0.00 0.00 0.00 0.00 0.00 0.00 0.00 0.00 0.00 0.00 0.00 0.00 0.00 0.00 0.00 0.00 0.00 0.00 0.00 0.00 0.00 0.00 0.00 0.00 0.00 0.00
0.00 0.00 0.00 0.00 0.00 0.00 0.00 0.00 0.00 0.00 0.00 0.00 0.00 0.00 0.00 0.00 0.00 0.00 0.00 0.00 0.00 0.00 0.00 0.00 0.00 0.00 0.00 0.00 0.00 0.00 0.00 0.00 0.00 0.00 0.00 0.00 0.00 0.00 0.00 0.00 0.00 0.00 0.00 0.00 0.00 0.00 0.00 0.00 0.00
0.00 0.00 0.00 0.00 0.00 0.00 0.00 0.00 0.00 0.00 0.00 0.00 0.00 0.00 0.00 0.00 0.00 0.00 0.00 0.00 0.00 0.00 0.00 0.00 0.00 0.00 0.00 0.00 0.00 0.00 0.00 0.00 0.00 0.00 0.00 0.00 0.00 0.00 0.00 0.00 0.00 0.00 0.00 0.00 0.00 0.00 0.00 0.00 0.00
MSLP
1010.42 1011.61 1012.85 1013.90 1014.59 1014.80 1014.51 1013.78 1012.78 1011.70 1010.74 1010.07 1009.73 1009.73 1009.98 1010.34 1010.69 1010.92 1010.99 1010.92 1010.77 1010.63 1010.57 1010.65 1010.87 1011.20 1011.58 1011.95 1012.27 1012.50 1012.67 1012.81 1012.97 1013.17 1013.44 1013.76 1014.12 1014.48 1014.79 1015.04 1015.22 1015.35 1015.44 1015.53 1015.63 1015.75 1015.88 1016.01 1016.14
1011.03 1012.32 1013.55 1014.49 1014.99 1014.93 1014.35 1013.35 1012.12 1010.88 1009.86 1009.18 1008.90 1008.99 1009.33 1009.79 1010.21 1010.50 1010.62 1010.59 1010.48 1010.39 1010.39 1010.52 1010.81 1011.21 1011.66 1012.09 1012.46 1012.75 1012.96 1013.14 1013.31 1013.52 1013.78 1014.08 1014.39 1014.68 1014.93 1015.12 1015.25 1015.34 1015.43 1015.53 1015.66 1015.82 1016.00 1016.18 1016.34
1011.74 1013.06 1014.20 1014.97 1015.22 1014.89 1014.03 1012.81 1011.43 1010.13 1009.12 1008.51 1008.34 1008.54 1008.98 1009.51 1009.98 1010.29 1010.41 1010.39 1010.29 1010.22 1010.27 1010.46 1010.82 1011.28 1011.78 1012.26 1012.67 1012.99 1013.22 1013.41 1013.59 1013.79 1014.03 1014.29 1014.56 1014.80 1014.99 1015.12 1015.21 1015.29 1015.37 1015.49 1015.66 1015.87 1016.09 1016.32 1016.52
1012.47 1013.75 1014.75 1015.30 1015.28 1014.69 1013.62 1012.25 1010.82 1009.55 1008.63 1008.16 1008.13 1008.45 1008.98 1009.54 1010.01 1010.29 1010.38 1010.33 1010.23 1010.18 1010.25 1010.50 1010.91 1011.42 1011.96 1012.46 1012.88 1013.19 1013.42 1013.60 1013.77 1013.96 1014.17 1014.40 1014.64 1014.84 1014.99 1015.09 1015.16 1015.23 1015.32 1015.46 1015.66 1015.91 1016.18 1016.44 1016.68
1013.16 1014.32 1015.13 1015.44 1015.18 1014.38 1013.17 1011.75 1010.36 1009.21 1008.46 1008.16 1008.29 1008.72 1009.29 1009.86 1010.28 1010.49 1010.51 1010.42 1010.30 1010.25 1010.36 1010.65 1011.10 1011.63 1012.18 1012.67 1013.07 1013.35 1013.55 1013.70 1013.84 1014.01 1014.21 1014.43 1014.65 1014.84 1014.97 1015.07 1015.13 1015.20 1015.31 1015.47 1015.69 1015.96 1016.26 1016.54 1016.79
1013.72 1014.73 1015.32 1015.40 1014.94 1014.00 1012.74 1011.36 1010.09 1009.13 1008.59 1008.48 1008.75 1009.26 1009.84 1010.36 1010.70 1010.82 1010.76 1010.61 1010.48 1010.45 1010.59 1010.92 1011.39 1011.93 1012.46 1012.91 1013.24 1013.47 1013.61 1013.72 1013.83 1013.99 1014.19 1014.42 1014.64 1014.84 1014.99 1015.09 1015.16 1015.24 1015.35 1015.52 1015.75 1016.02 1016.31 1016.59 1016.83
1014.10 1014.92 1015.30 1015.18 1014.57 1013.57 1012.34 1011.09 1010.01 1009.28 1008.96 1009.03 1009.40 1009.94 1010.50 1010.93 1011.16 1011.18 1011.05 1010.87 1010.74 1010.74 1010.92 1011.28 1011.77 1012.29 1012.78 1013.16 1013.42 1013.57 1013.64 1013.70 1013.79 1013.94 1014.15 1014.41 1014.66 1014.89 1015.06 1015.17 1015.25 1015.33 1015.43 1015.59 1015.80 1016.05 1016.32 1016.57 1016.79
1014.27 1014.89 1015.07 1014.79 1014.10 1013.11 1011.99 1010.92 1010.08 1009.58 1009.46 1009.67 1010.11 1010.64 1011.12 1011.45 1011.57 1011.51 1011.33 1011.14 1011.03 1011.08 1011.32 1011.72 1012.21 1012.71 1013.13 1013.44 1013.60 1013.67 1013.67 1013.69 1013.76 1013.92 1014.15 1014.44 1014.72 1014.98 1015.17 1015.29 1015.37 1015.43 1015.52 1015.64 1015.81 1016.02 1016.25 1016.46 1016.65
1014.21 1014.63 1014.65 1014.27 1013.56 1012.65 1011.69 1010.84 1010.23 1009.95 1010.00 1010.30 1010.76 1011.24 1011.62 1011.84 1011.87 1011.74 1011.54 1011.38 1011.33 1011.46 1011.76 1012.19 1012.69 1013.15 1013.51 1013.72 1013.80 1013.78 1013.73 1013.71 1013.77 1013.94 1014.19 1014.51 1014.82 1015.09 1015.29 1015.41 1015.48 1015.52 1015.56 1015.65 1015.77 1015.93 1016.11 1016.27 1016.42
1013.96 1014.21 1014.11 1013.68 1013.01 1012.23 1011.46 1010.83 1010.45 1010.35 1010.51 1010.85 1011.28 1011.68 1011.96 1012.07 1012.03 1011.87 1011.70 1011.59 1011.63 1011.84 1012.21 1012.67 1013.16 1013.58 1013.86 1014.00 1014.00 1013.91 1013.81 1013.76 1013.82 1013.99 1014.27 1014.60 1014.92 1015.20 1015.39 1015.50 1015.54 1015.54 1015.55 1015.59 1015.66 1015.77 1015.90 1016.03 1016.13
1013.58 1013.70 1013.52 1013.10 1012.52 1011.89 1011.32 1010.91 1010.71 1010.75 1010.98 1011.32 1011.68 1011.98 1012.15 1012.18 1012.09 1011.94 1011.82 1011.79 1011.92 1012.21 1012.63 1013.11 1013.58 1013.95 1014.17 1014.23 1014.16 1014.03 1013.89 1013.83 1013.89 1014.07 1014.34 1014.67 1015.00 1015.26 1015.44 1015.52 1015.53 1015.50 1015.47 1015.47 1015.51 1015.58 1015.67 1015.75 1015.82
1013.18 1013.21 1013.00 1012.63 1012.16 1011.70 1011.33 1011.11 1011.06 1011.18 1011.42 1011.72 1012.00 1012.19 1012.27 1012.24 1012.13 1012.01 1011.95 1012.00 1012.21 1012.55 1013.00 1013.48 1013.91 1014.22 1014.38 1014.38 1014.27 1014.10 1013.96 1013.89 1013.95 1014.12 1014.39 1014.71 1015.01 1015.25 1015.41 1015.47 1015.46 1015.41 1015.36 1015.34 1015.35 1015.39 1015.45 1015.50 1015.55
1012.87 1012.84 1012.65 1012.35 1012.02 1011.73 1011.53 1011.46 1011.52 1011.68 1011.90 1012.13 1012.31 1012.40 1012.41 1012.33 1012.22 1012.14 1012.13 1012.25 1012.50 1012.87 1013.30 1013.74 1014.12 1014.37 1014.47 1014.43 1014.30 1014.12 1013.98 1013.92 1013.97 1014.14 1014.39 1014.68 1014.96 1015.17 1015.31 1015.36 1015.35 1015.30 1015.25 1015.22 1015.22 1015.24 1015.28 1015.31 1015.32
1012.75 1012.70 1012.54 1012.34 1012.15 1012.02 1011.96 1012.00 1012.12 1012.28 1012.45 1012.60 1012.68 1012.69 1012.63 1012.53 1012.43 1012.37 1012.40 1012.55 1012.80 1013.14 1013.53 1013.89 1014.19 1014.37 1014.43 1014.37 1014.24 1014.08 1013.96 1013.91 1013.97 1014.12 1014.35 1014.60 1014.85 1015.04 1015.17 1015.23 1015.23 1015.21 1015.18 1015.16 1015.16 1015.17 1015.19 1015.19 1015.17
1012.84 1012.80 1012.70 1012.60 1012.54 1012.54 1012.61 1012.72 1012.85 1012.99 1013.09 1013.14 1013.13 1013.07 1012.97 1012.85 1012.76 1012.72 1012.76 1012.89 1013.10 1013.37 1013.67 1013.94 1014.15 1014.27 1014.30 1014.24 1014.14 1014.02 1013.93 1013.90 1013.96 1014.09 1014.28 1014.50 1014.71 1014.90 1015.03 1015.11 1015.15 1015.17 1015.17 1015.17 1015.18 1015.18 1015.17 1015.14 1015.08
1013.12 1013.11 1013.08 1013.09 1013.16 1013.27 1013.41 1013.56 1013.68 1013.76 1013.78 1013.74 1013.65 1013.52 1013.39 1013.27 1013.18 1013.15 1013.17 1013.26 1013.39 1013.56 1013.74 1013.90 1014.03 1014.10 1014.12 1014.09 1014.03 1013.96 1013.92 1013.92 1013.97 1014.08 1014.24 1014.42 1014.60 1014.78 1014.92 1015.04 1015.13 1015.18 1015.22 1015.24 1015.25 1015.23 1015.19 1015.11 1015.01
1013.51 1013.54 1013.60 1013.73 1013.90 1014.10 1014.29 1014.45 1014.53 1014.53 1014.45 1014.32 1014.15 1013.98 1013.83 1013.71 1013.63 1013.59 1013.58 1013.60 1013.64 1013.70 1013.76 1013.82 1013.87 1013.92 1013.95 1013.96 1013.97 1013.98 1013.99 1014.01 1014.06 1014.14 1014.25 1014.38 1014.54 1014.70 1014.86 1015.01 1015.14 1015.24 1015.31 1015.34 1015.33 1015.28 1015.19 1015.07 1014.92
1013.88 1013.99 1014.16 1014.40 1014.69 1014.96 1015.18 1015.31 1015.33 1015.23 1015.05 1014.81 1014.57 1014.36 1014.19 1014.08 1014.01 1013.96 1013.93 1013.89 1013.84 1013.79 1013.74 1013.72 1013.73 1013.77 1013.83 1013.92 1014.01 1014.09 1014.15 1014.20 1014.24 1014.28 1014.34 1014.42 1014.53 1014.68 1014.84 1015.02 1015.18 1015.31 1015.39 1015.41 1015.37 1015.28 1015.14 1014.97 1014.78
1014.14 1014.36 1014.67 1015.05 1015.44 1015.79 1016.02 1016.10 1016.03 1015.81 1015.50 1015.16 1014.84 1014.58 1014.41 1014.31 1014.25 1014.21 1014.16 1014.08 1013.96 1013.84 1013.72 1013.64 1013.63 1013.69 1013.81 1013.97 1014.15 1014.30 1014.42 1014.48 1014.50 1014.50 1014.49 1014.51 1014.58 1014.69 1014.85 1015.03 1015.20 1015.33 1015.41 1015.40 1015.33 1015.19 1015.00 1014.79 1014.58
1014.23 1014.61 1015.09 1015.63 1016.14 1016.54 1016.78 1016.80 1016.61 1016.25 1015.80 1015.33 1014.92 1014.62 1014.43 1014.34 1014.32 1014.31 1014.27 1014.17 1014.03 1013.86 1013.70 1013.60 1013.60 1013.69 1013.87 1014.11 1014.37 1014.59 1014.75 1014.82 1014.82 1014.76 1014.69 1014.65 1014.65 1014.72 1014.84 1015.00 1015.16 1015.28 1015.33 1015.29 1015.17 1014.98 1014.75 1014.52 1014.30
1014.18 1014.75 1015.43 1016.14 1016.79 1017.26 1017.48 1017.42 1017.09 1016.57 1015.96 1015.35 1014.83 1014.47 1014.27 1014.20 1014.22 1014.25 1014.25 1014.17 1014.04 1013.87 1013.71 1013.61 1013.63 1013.76 1014.00 1014.31 1014.63 1014.90 1015.09 1015.16 1015.13 1015.03 1014.89 1014.77 1014.71 1014.72 1014.80 1014.93 1015.05 1015.14 1015.15 1015.07 1014.91 1014.68 1014.42 1014.18 1013.98
1014.06 1014.85 1015.75 1016.65 1017.43 1017.95 1018.15 1018.00 1017.53 1016.83 1016.03 1015.27 1014.63 1014.20 1013.98 1013.93 1013.99 1014.09 1014.15 1014.13 1014.03 1013.89 1013.75 1013.67 1013.71 1013.88 1014.15 1014.50 1014.86 1015.17 1015.37 1015.44 1015.38 1015.23 1015.04 1014.86 1014.74 1014.69 1014.72 1014.79 1014.87 1014.91 1014.88 1014.76 1014.56 1014.31 1014.04 1013.81 1013.64
1013.98 1014.99 1016.11 1017.19 1018.09 1018.66 1018.83 1018.57 1017.95 1017.06 1016.08 1015.15 1014.40 1013.89 1013.64 1013.61 1013.73 1013.90 1014.03 1014.09 1014.05 1013.95 1013.84 1013.78 1013.83 1014.00 1014.29 1014.65 1015.02 1015.33 1015.53 1015.59 1015.51 1015.34 1015.10 1014.88 1014.70 1014.60 1014.58 1014.60 1014.63 1014.62 1014.55 1014.40 1014.17 1013.91 1013.65 1013.44 1013.32
1014.02 1015.23 1016.54 1017.78 1018.77 1019.36 1019.49 1019.12 1018.35 1017.29 1016.13 1015.05 1014.18 1013.60 1013.33 1013.33 1013.50 1013.75 1013.96 1014.09 1014.12 1014.06 1013.97 1013.92 1013.96 1014.11 1014.38 1014.72 1015.07 1015.37 1015.56 1015.60 1015.52 1015.32 1015.07 1014.82 1014.61 1014.47 1014.40 1014.38 1014.36 1014.31 1014.20 1014.02 1013.79 1013.53 1013.29 1013.11 1013.03
1014.21 1015.57 1017.02 1018.36 1019.40 1019.99 1020.05 1019.58 1018.67 1017.47 1016.17 1014.97 1014.02 1013.39 1013.11 1013.13 1013.36 1013.68 1013.97 1014.17 1014.25 1014.23 1014.15 1014.09 1014.09 1014.20 1014.41 1014.69 1015.00 1015.26 1015.43 1015.47 1015.38 1015.19 1014.95 1014.69 1014.47 1014.31 1014.21 1014.14 1014.09 1014.00 1013.86 1013.67 1013.43 1013.18 1012.96 1012.81 1012.77
1014.52 1015.96 1017.47 1018.84 1019.87 1020.42 1020.41 1019.86 1018.84 1017.54 1016.16 1014.89 1013.89 1013.25 1012.98 1013.04 1013.33 1013.71 1014.07 1014.33 1014.45 1014.45 1014.36 1014.26 1014.21 1014.24 1014.38 1014.59 1014.83 1015.04 1015.18 1015.22 1015.14 1014.97 1014.74 1014.49 1014.28 1014.11 1013.99 1013.90 1013.81 1013.70 1013.54 1013.33 1013.10 1012.86 1012.66 1012.53 1012.51
1014.86 1016.29 1017.77 1019.09 1020.06 1020.54 1020.45 1019.82 1018.75 1017.41 1016.01 1014.74 1013.76 1013.15 1012.93 1013.04 1013.38 1013.82 1014.23 1014.53 1014.68 1014.68 1014.58 1014.43 1014.31 1014.26 1014.30 1014.42 1014.58 1014.74 1014.85 1014.88 1014.81 1014.66 1014.46 1014.24 1014.04 1013.87 1013.74 1013.63 1013.52 1013.39 1013.22 1013.01 1012.78 1012.55 1012.36 1012.25 1012.24
1015.11 1016.45 1017.81 1019.00 1019.85 1020.22 1020.06 1019.40 1018.33 1017.02 1015.68 1014.49 1013.59 1013.06 1012.92 1013.09 1013.49 1013.97 1014.42 1014.74 1014.90 1014.89 1014.75 1014.55 1014.36 1014.23 1014.17 1014.21 1014.29 1014.39 1014.47 1014.49 1014.43 1014.30 1014.13 1013.94 1013.76 1013.60 1013.46 1013.34 1013.21 1013.06 1012.88 1012.67 1012.44 1012.22 1012.04 1011.94 1011.92
1015.19 1016.35 1017.52 1018.52 1019.21 1019.46 1019.23 1018.56 1017.55 1016.34 1015.14 1014.09 1013.34 1012.94 1012.89 1013.14 1013.59 1014.10 1014.56 1014.89 1015.03 1015.01 1014.84 1014.60 1014.35 1014.14 1014.02 1013.97 1013.99 1014.04 1014.08 1014.08 1014.02 1013.91 1013.76 1013.59 1013.42 1013.26 1013.11 1012.98 1012.84 1012.68 1012.50 1012.28 1012.06 1011.85 1011.67 1011.56 1011.53
1015.06 1016.00 1016.92 1017.70 1018.19 1018.31 1018.04 1017.40 1016.49 1015.45 1014.43 1013.58 1013.01 1012.76 1012.83 1013.16 1013.64 1014.16 1014.61 1014.92 1015.05 1015.00 1014.81 1014.54 1014.25 1014.01 1013.83 1013.73 1013.69 1013.69 1013.69 1013.67 1013.61 1013.49 1013.35 1013.18 1013.01 1012.84 1012.69 1012.54 1012.39 1012.23 1012.04 1011.83 1011.62 1011.41 1011.24 1011.13 1011.08
Thickness
5816 5813 5809 5797 5777 5763 5764 5783 5800 5809 5816 5828 5831 5826 5816 5808 5801 5796 5811 5820 5817 5811 5806 5802 5798 5795 5792 5790 5788 5786 5784 5782 5780 5779 5777 5775 5773 5771 5769 5767 5766 5764 5763 5762 5760 5759 5757 5756 5755
5815 5811 5800 5785 5766 5756 5771 5796 5804 5813 5825 5832 5831 5825 5815 5808 5812 5811 5813 5816 5815 5810 5805 5801 5797 5793 5790 5788 5786 5783 5781 5779 5777 5775 5773 5772 5770 5768 5767 5765 5764 5762 5761 5759 5758 5756 5755 5754 5753
5813 5808 5788 5772 5762 5760 5777 5803 5811 5823 5832 5830 5823 5822 5814 5808 5813 5813 5816 5817 5812 5807 5803 5799 5795 5791 5788 5786 5783 5781 5779 5776 5774 5772 5770 5769 5767 5765 5764 5762 5761 5760 5758 5757 5755 5754 5753 5751 5750
5807 5793 5781 5765 5762 5776 5790 5807 5817 5820 5827 5829 5821 5810 5812 5816 5817 5817 5818 5814 5809 5804 5800 5797 5793 5789 5786 5783 5781 5779 5776 5774 5771 5769 5768 5766 5764 5762 5761 5759 5758 5757 5756 5754 5753 5751 5750 5749 5747
5801 5782 5765 5755 5762 5784 5803 5815 5820 5816 5816 5819 5816 5802 5800 5812 5818 5817 5815 5811 5806 5801 5798 5794 5790 5787 5783 5780 5778 5776 5773 5771 5769 5766 5764 5763 5761 5759 5758 5756 5755 5754 5752 5751 5750 5749 5747 5746 5745
5783 5771 5752 5748 5764 5788 5805 5815 5817 5812 5812 5814 5810 5798 5795 5807 5809 5809 5809 5807 5804 5799 5795 5791 5788 5784 5781 5778 5775 5773 5771 5768 5766 5764 5761 5760 5758 5757 5755 5753 5752 5751 5749 5748 5747 5746 5744 5743 5742
5774 5760 5751 5754 5762 5779 5800 5812 5809 5806 5805 5809 5810 5792 5792 5800 5804 5805 5803 5801 5798 5795 5792 5788 5785 5781 5778 5775 5772 5770 5768 5766 5764 5762 5760 5758 5756 5755 5753 5751 5750 5748 5747 5745 5744 5743 5742 5740 5739
5780 5759 5752 5751 5760 5773 5796 5805 5808 5804 5803 5813 5809 5790 5788 5797 5801 5799 5797 5795 5792 5789 5786 5783 5780 5777 5774 5771 5769 5767 5766 5763 5761 5759 5758 5756 5754 5753 5751 5749 5747 5746 5745 5743 5742 5740 5739 5738 5736
5778 5749 5740 5752 5762 5774 5792 5795 5801 5808 5804 5804 5803 5801 5802 5801 5797 5792 5788 5786 5784 5782 5780 5778 5775 5772 5769 5767 5765 5764 5762 5760 5758 5756 5754 5753 5751 5750 5748 5747 5745 5744 5742 5741 5740 5738 5736 5735 5734
5762 5740 5749 5767 5774 5779 5786 5788 5791 5792 5787 5786 5788 5795 5798 5793 5788 5784 5781 5777 5776 5774 5773 5771 5769 5767 5763 5761 5760 5759 5757 5755 5754 5751 5749 5748 5746 5745 5744 5743 5742 5741 5740 5738 5737 5735 5734 5732 5731
5758 5751 5763 5772 5779 5782 5780 5781 5786 5780 5771 5775 5777 5782 5787 5784 5780 5777 5775 5773 5771 5769 5767 5765 5763 5760 5758 5756 5754 5753 5751 5750 5748 5747 5745 5743 5741 5740 5739 5738 5737 5736 5735 5734 5734 5732 5731 5730 5728
5754 5760 5767 5772 5779 5778 5776 5776 5771 5770 5768 5778 5780 5781 5780 5776 5774 5772 5769 5767 5766 5763 5762 5761 5758 5755 5752 5750 5749 5747 5745 5743 5742 5742 5740 5739 5736 5735 5734 5732 5732 5731 5730 5730 5729 5728 5728 5727 5725
5752 5757 5766 5770 5772 5773 5772 5767 5764 5760 5769 5775 5775 5773 5770 5768 5766 5766 5766 5763 5761 5757 5756 5755 5753 5750 5747 5743 5742 5740 5739 5737 5737 5736 5735 5734 5732 5731 5730 5728 5726 5725 5724 5724 5725 5724 5724 5723 5721
5755 5758 5760 5763 5766 5768 5761 5757 5757 5753 5763 5765 5764 5762 5762 5761 5759 5759 5758 5755 5753 5752 5750 5749 5747 5744 5740 5737 5735 5733 5733 5732 5730 5729 5729 5728 5727 5726 5725 5723 5721 5719 5719 5719 5719 5719 5718 5718 5717
5758 5750 5750 5754 5758 5758 5757 5742 5744 5750 5756 5754 5753 5753 5752 5751 5752 5751 5750 5749 5747 5745 5744 5743 5741 5738 5735 5733 5730 5728 5727 5726 5725 5723 5723 5722 5722 5720 5718 5716 5715 5714 5713 5713 5713 5713 5712 5711 5711
5749 5737 5729 5743 5749 5752 5744 5723 5737 5746 5747 5744 5745 5745 5744 5743 5743 5744 5745 5744 5742 5740 5739 5737 5736 5732 5730 5728 5725 5724 5722 5720 5719 5718 5716 5715 5714 5713 5711 5709 5708 5707 5707 5706 5706 5705 5704 5704 5704
5728 5721 5723 5733 5744 5744 5736 5723 5733 5740 5740 5738 5737 5738 5738 5737 5736 5737 5739 5739 5737 5736 5734 5731 5729 5727 5725 5722 5720 5718 5716 5714 5712 5711 5709 5708 5706 5705 5704 5702 5701 5700 5699 5698 5698 5698 5696 5696 5697
5722 5722 5722 5724 5735 5734 5725 5721 5727 5733 5733 5732 5731 5731 5732 5732 5731 5732 5734 5734 5733 5731 5730 5727 5724 5721 5719 5716 5713 5711 5709 5707 5705 5703 5701 5700 5698 5697 5695 5694 5692 5691 5689 5689 5688 5688 5688 5688 5689
5737 5727 5721 5724 5733 5726 5718 5715 5719 5724 5724 5723 5724 5726 5726 5727 5730 5729 5729 5730 5728 5726 5724 5721 5718 5716 5713 5709 5706 5703 5701 5699 5697 5695 5694 5692 5690 5688 5687 5685 5683 5682 5680 5679 5679 5679 5679 5680 5681
5736 5725 5720 5723 5730 5722 5712 5709 5713 5716 5717 5718 5719 5721 5723 5723 5723 5724 5725 5725 5723 5722 5719 5717 5714 5711 5708 5705 5701 5698 5695 5691 5689 5686 5685 5683 5681 5679 5678 5676 5675 5673 5672 5671 5670 5669 5669 5670 5671
5734 5727 5722 5718 5720 5718 5710 5702 5704 5710 5713 5715 5718 5721 5723 5722 5721 5722 5722 5722 5720 5718 5716 5714 5710 5706 5703 5700 5695 5691 5687 5683 5680 5678 5675 5674 5672 5670 5669 5668 5666 5665 5663 5662 5662 5660 5660 5660 5661
5730 5740 5734 5723 5708 5694 5699 5684 5696 5701 5704 5710 5714 5718 5720 5722 5723 5722 5722 5720 5719 5717 5714 5711 5707 5702 5699 5695 5690 5685 5679 5675 5672 5669 5667 5665 5663 5662 5661 5659 5658 5657 5655 5654 5654 5654 5652 5652 5651
5736 5740 5730 5718 5704 5694 5692 5683 5688 5697 5699 5707 5715 5720 5723 5724 5725 5724 5723 5721 5719 5717 5713 5708 5703 5699 5694 5690 5685 5679 5674 5670 5666 5663 5660 5658 5656 5654 5653 5652 5650 5649 5648 5647 5646 5645 5644 5644 5644
5742 5731 5719 5705 5696 5683 5686 5681 5684 5694 5704 5711 5718 5723 5725 5726 5727 5726 5724 5722 5718 5715 5711 5706 5700 5694 5689 5684 5679 5674 5668 5664 5660 5656 5653 5651 5648 5647 5646 5644 5642 5641 5639 5639 5638 5637 5636 5636 5636
5736 5712 5691 5687 5675 5677 5688 5683 5688 5711 5717 5719 5722 5724 5727 5727 5725 5723 5721 5718 5715 5710 5706 5701 5695 5689 5684 5678 5673 5668 5663 5658 5654 5650 5647 5644 5641 5639 5638 5636 5634 5633 5632 5631 5630 5629 5629 5629 5629
5730 5718 5693 5684 5677 5679 5687 5683 5702 5724 5727 5727 5727 5727 5727 5725 5723 5722 5719 5715 5711 5706 5700 5695 5688 5682 5677 5672 5667 5662 5657 5652 5648 5645 5641 5638 5635 5633 5631 5628 5626 5625 5624 5623 5622 5621 5621 5621 5622
5728 5717 5715 5690 5684 5678 5683 5693 5712 5728 5727 5727 5727 5726 5724 5723 5721 5719 5715 5711 5706 5700 5694 5688 5682 5677 5672 5667 5661 5657 5652 5648 5644 5640 5636 5632 5629 5627 5625 5622 5619 5617 5616 5615 5614 5613 5613 5613 5614
5743 5721 5701 5689 5677 5675 5685 5689 5695 5717 5722 5725 5724 5723 5722 5720 5717 5714 5709 5704 5698 5693 5688 5682 5677 5672 5667 5662 5657 5653 5648 5643 5639 5635 5631 5627 5624 5621 5618 5615 5612 5610 5608 5607 5606 5605 5605 5605 5606
5736 5721 5701 5686 5686 5673 5671 5685 5718 5722 5726 5724 5724 5723 5719 5715 5711 5707 5702 5697 5692 5687 5682 5677 5671 5666 5661 5657 5652 5647 5643 5638 5634 5629 5626 5622 5618 5615 5611 5608 5605 5603 5601 5599 5597 5597 5597 5597 5598
5745 5732 5709 5698 5687 5679 5675 5689 5732 5729 5728 5726 5724 5722 5717 5712 5705 5700 5695 5690 5685 5681 5676 5671 5666 5662 5657 5652 5647 5642 5638 5633 5628 5624 5621 5616 5612 5609 5605 5602 5598 5596 5594 5592 5590 5588 5589 5589 5590